When you browse on this site, cookies collect data to enhance your experience and personalize the content and advertising you see.
Visit our Privacy Policy to learn more. By continuing to use the site, you agree to this use of cookies and data.
  • In Deutschland
  • Länderverzeichnis
  • Für 7 Tage
  • Wassertemperatur
  • Satellitenkarten
  • Wetterkarte
  • Widgets
  • user-avatar
    Anmelden

    Stündliche Wetter Puerto Iguazú

    Heute, 21 Februar, Donnerstag

    Zeit Temperatur Niederschläge Wind Luftdruck Luftfeuchtigkeit
    00:00 +25°C° 0 mm 1 m/S 743 mmHg 76%
    01:00 +24°C° 0 mm 1 m/S 743 mmHg 79%
    02:00 +24°C° 0 mm 1 m/S 743 mmHg 83%
    03:00 +23°C° 0 mm 1 m/S 743 mmHg 85%
    04:00 +23°C° 0 mm 1 m/S 743 mmHg 88%
    05:00 +22°C° 0 mm 1 m/S 743 mmHg 90%
    06:00 +24°C° 0 mm 1 m/S 743 mmHg 81%
    07:00 +26°C° 0 mm 1 m/S 744 mmHg 72%
    08:00 +28°C° 0 mm 1 m/S 744 mmHg 63%
    09:00 +31°C° 0 mm 1 m/S 744 mmHg 54%
    10:00 +34°C° 0 mm 1 m/S 744 mmHg 45%
    11:00 +37°C° 0 mm 1 m/S 744 mmHg 36%
    12:00 +39°C° 0 mm 1 m/S 744 mmHg 33%
    13:00 +38°C° 0 mm 0 m/S 743 mmHg 31%
    14:00 +39°C° 0 mm 0 m/S 743 mmHg 28%
    15:00 +37°C° 0 mm 0 m/S 742 mmHg 31%
    16:00 +36°C° 0 mm 0 m/S 742 mmHg 34%
    17:00 +34°C° 0 mm 0 m/S 742 mmHg 37%
    18:00 +35°C° 0 mm 1 m/S 742 mmHg 41%
    19:00 +33°C° 0 mm 1 m/S 742 mmHg 46%
    20:00 +31°C° 0 mm 2 m/S 742 mmHg 50%
    21:00 +30°C° 0 mm 2 m/S 743 mmHg 57%
    22:00 +29°C° 0 mm 2 m/S 743 mmHg 63%
    23:00 +28°C° 0 mm 1 m/S 744 mmHg 70%

    Morgen, 22 Februar, Freitag

    Zeit Temperatur Niederschläge Wind Luftdruck Luftfeuchtigkeit
    00:00 +27°C° 0 mm 1 m/S 743 mmHg 73%
    01:00 +26°C° 0 mm 1 m/S 743 mmHg 76%
    02:00 +25°C° 0 mm 1 m/S 743 mmHg 79%
    03:00 +25°C° 0 mm 1 m/S 743 mmHg 81%
    04:00 +24°C° 0 mm 1 m/S 743 mmHg 83%
    05:00 +24°C° 0 mm 1 m/S 744 mmHg 85%
    06:00 +26°C° 0 mm 1 m/S 744 mmHg 78%
    07:00 +28°C° 0 mm 1 m/S 745 mmHg 71%
    08:00 +30°C° 0 mm 1 m/S 745 mmHg 64%
    09:00 +32°C° 0 mm 1 m/S 745 mmHg 56%
    10:00 +34°C° 0 mm 1 m/S 744 mmHg 48%
    11:00 +37°C° 0 mm 1 m/S 744 mmHg 41%
    12:00 +37°C° 0 mm 1 m/S 744 mmHg 39%
    13:00 +37°C° 0 mm 1 m/S 743 mmHg 38%
    14:00 +39°C° 0 mm 1 m/S 742 mmHg 37%
    15:00 +35°C° 0 mm 0 m/S 742 mmHg 38%
    16:00 +35°C° 0 mm 0 m/S 742 mmHg 39%
    17:00 +34°C° 0 mm 0 m/S 741 mmHg 40%
    18:00 +34°C° 0 mm 1 m/S 742 mmHg 46%
    19:00 +32°C° 0 mm 1 m/S 742 mmHg 52%
    20:00 +30°C° 0 mm 2 m/S 743 mmHg 58%
    21:00 +29°C° 0 mm 1 m/S 743 mmHg 62%
    22:00 +29°C° 0 mm 1 m/S 743 mmHg 67%
    23:00 +28°C° 0 mm 1 m/S 743 mmHg 71%

    übermorgen, 23 Februar, Samstag

    Zeit Temperatur Niederschläge Wind Luftdruck Luftfeuchtigkeit
    00:00 +27°C° 0 mm 1 m/S 743 mmHg 74%
    01:00 +27°C° 0 mm 1 m/S 743 mmHg 77%
    02:00 +26°C° 0 mm 1 m/S 742 mmHg 80%
    03:00 +26°C° 0 mm 1 m/S 742 mmHg 82%
    04:00 +26°C° 0 mm 1 m/S 742 mmHg 84%
    05:00 +25°C° 0 mm 1 m/S 742 mmHg 86%
    06:00 +27°C° 0 mm 1 m/S 743 mmHg 78%
    07:00 +29°C° 0 mm 2 m/S 743 mmHg 71%
    08:00 +31°C° 0 mm 2 m/S 743 mmHg 63%
    09:00 +34°C° 0 mm 2 m/S 743 mmHg 55%
    10:00 +36°C° 0 mm 2 m/S 743 mmHg 47%
    11:00 +38°C° 0 mm 2 m/S 742 mmHg 39%
    12:00 +39°C° 0 mm 2 m/S 742 mmHg 37%
    13:00 +39°C° 0 mm 2 m/S 741 mmHg 36%
    14:00 +39°C° 0 mm 2 m/S 740 mmHg 35%
    15:00 +39°C° 0 mm 2 m/S 740 mmHg 36%
    16:00 +39°C° 0 mm 2 m/S 739 mmHg 37%
    17:00 +38°C° 0 mm 2 m/S 739 mmHg 38%
    18:00 +36°C° 0 mm 2 m/S 739 mmHg 44%
    19:00 +34°C° 0 mm 2 m/S 739 mmHg 51%
    20:00 +32°C° 0 mm 2 m/S 740 mmHg 57%
    21:00 +31°C° 0 mm 2 m/S 740 mmHg 60%
    22:00 +30°C° 0 mm 2 m/S 740 mmHg 63%
    23:00 +30°C° 0 mm 2 m/S 740 mmHg 66%

    24 Februar, Sonntag

    Zeit Temperatur Niederschläge Wind Luftdruck Luftfeuchtigkeit
    00:00 +29°C° 0 mm 2 m/S 740 mmHg 68%
    01:00 +29°C° 0 mm 2 m/S 739 mmHg 70%
    02:00 +28°C° 0 mm 2 m/S 739 mmHg 72%
    03:00 +28°C° 0 mm 2 m/S 739 mmHg 75%
    04:00 +28°C° 0 mm 2 m/S 739 mmHg 77%
    05:00 +27°C° 0 mm 2 m/S 740 mmHg 79%
    06:00 +29°C° 0 mm 2 m/S 740 mmHg 72%
    07:00 +31°C° 0 mm 3 m/S 740 mmHg 65%
    08:00 +33°C° 0 mm 3 m/S 741 mmHg 59%
    09:00 +35°C° 0 mm 3 m/S 740 mmHg 51%
    10:00 +37°C° 0 mm 3 m/S 740 mmHg 44%
    11:00 +39°C° 0 mm 3 m/S 740 mmHg 37%
    12:00 +40°C° 0 mm 3 m/S 739 mmHg 36%
    13:00 +40°C° 0 mm 3 m/S 738 mmHg 35%
    14:00 +40°C° 0 mm 3 m/S 737 mmHg 34%
    15:00 +39°C° 0 mm 2 m/S 737 mmHg 35%
    16:00 +39°C° 0 mm 2 m/S 737 mmHg 37%
    17:00 +38°C° 0 mm 2 m/S 736 mmHg 38%
    18:00 +37°C° 0 mm 2 m/S 737 mmHg 42%
    19:00 +36°C° 0 mm 2 m/S 737 mmHg 46%
    20:00 +35°C° 0 mm 3 m/S 737 mmHg 50%
    21:00 +35°C° 0 mm 3 m/S 738 mmHg 53%
    22:00 +34°C° 0 mm 3 m/S 738 mmHg 55%
    23:00 +34°C° 0 mm 3 m/S 738 mmHg 58%

    25 Februar, Montag

    Zeit Temperatur Niederschläge Wind Luftdruck Luftfeuchtigkeit
    00:00 +34°C° 0 mm 3 m/S 738 mmHg 58%
    01:00 +33°C° 0 mm 3 m/S 737 mmHg 58%
    02:00 +33°C° 0 mm 3 m/S 737 mmHg 58%
    03:00 +31°C° 0.1 mm 3 m/S 737 mmHg 62%
    04:00 +30°C° 0.1 mm 3 m/S 737 mmHg 66%
    05:00 +29°C° 0.1 mm 2 m/S 737 mmHg 71%
    06:00 +29°C° 0.9 mm 3 m/S 738 mmHg 72%
    07:00 +30°C° 0.9 mm 3 m/S 739 mmHg 72%
    08:00 +30°C° 0.9 mm 3 m/S 739 mmHg 73%
    09:00 +34°C° 0 mm 3 m/S 739 mmHg 61%
    10:00 +37°C° 0 mm 3 m/S 739 mmHg 49%
    11:00 +41°C° 0 mm 4 m/S 739 mmHg 37%
    12:00 +39°C° 0 mm 3 m/S 738 mmHg 39%
    13:00 +38°C° 0 mm 2 m/S 738 mmHg 41%
    14:00 +37°C° 0 mm 1 m/S 737 mmHg 43%
    15:00 +34°C° 1.8 mm 2 m/S 737 mmHg 59%
    16:00 +30°C° 1.8 mm 3 m/S 737 mmHg 76%
    17:00 +27°C° 1.8 mm 4 m/S 737 mmHg 93%
    18:00 +26°C° 3.6 mm 3 m/S 738 mmHg 94%
    19:00 +25°C° 3.6 mm 3 m/S 738 mmHg 95%
    20:00 +25°C° 3.6 mm 2 m/S 739 mmHg 96%
    21:00 +24°C° 0.9 mm 2 m/S 739 mmHg 96%
    22:00 +24°C° 0.9 mm 2 m/S 739 mmHg 97%
    23:00 +24°C° 0.9 mm 2 m/S 740 mmHg 97%

    26 Februar, Dienstag

    Zeit Temperatur Niederschläge Wind Luftdruck Luftfeuchtigkeit
    00:00 +24°C° 0.8 mm 1 m/S 739 mmHg 97%
    01:00 +24°C° 0.8 mm 1 m/S 739 mmHg 97%
    02:00 +23°C° 0.8 mm 1 m/S 739 mmHg 98%
    03:00 +23°C° 1.6 mm 1 m/S 739 mmHg 98%
    04:00 +23°C° 1.6 mm 1 m/S 739 mmHg 98%
    05:00 +23°C° 1.6 mm 1 m/S 739 mmHg 98%
    06:00 +23°C° 3.7 mm 1 m/S 740 mmHg 98%
    07:00 +24°C° 3.7 mm 1 m/S 741 mmHg 98%
    08:00 +24°C° 3.7 mm 1 m/S 741 mmHg 98%
    09:00 +24°C° 3.9 mm 1 m/S 741 mmHg 98%
    10:00 +24°C° 3.9 mm 1 m/S 741 mmHg 98%
    11:00 +25°C° 3.9 mm 1 m/S 741 mmHg 98%
    12:00 +25°C° 0.9 mm 1 m/S 741 mmHg 98%
    13:00 +25°C° 0.9 mm 1 m/S 741 mmHg 97%
    14:00 +25°C° 0.9 mm 1 m/S 741 mmHg 97%
    15:00 +25°C° 0.6 mm 1 m/S 741 mmHg 97%
    16:00 +25°C° 0.6 mm 1 m/S 742 mmHg 97%
    17:00 +25°C° 0.6 mm 1 m/S 742 mmHg 97%
    18:00 +25°C° 0.5 mm 1 m/S 742 mmHg 97%
    19:00 +24°C° 0.5 mm 2 m/S 743 mmHg 97%
    20:00 +24°C° 0.5 mm 2 m/S 743 mmHg 97%
    21:00 +23°C° 0 mm 2 m/S 744 mmHg 96%
    22:00 +23°C° 0 mm 2 m/S 744 mmHg 95%
    23:00 +21°C° 0 mm 2 m/S 744 mmHg 95%
    Mehr zeigen